Weather in Lochgilphead

United Kingdom     56°02′10″N   5°25′52″W
temp.,
°C
wind,
m/s
gust,
m/s
humid.,
%
clouds,
%
prec.,
mm/h
press.,
hPa
HPBL,
m
12 april, mon
mon1201:00−1nne23700 0.0 1025133
04:00−1ne12720 0.0 102676
07:00−1ne11671 0.0 102753
10:00+4nw11455 0.0 1028681
13:00+6wnw32380 0.0 10291213
16:00+6wnw33376 0.0 10291049
19:00+5wnw225151 0.0 1029243
22:00+1e00645 0.0 103145
13 april, tue
tue1301:000ese116437 0.0 103133
04:00+1ese116387 0.0 103140
07:00+1ese117149 0.0 103235
10:00+6ssw116393 0.0 1032428
13:00+8wsw2261100 0.0 10321017
16:00+7w237775 0.1 1032658
19:00+7wnw23767 0.1 1032528
22:00+4sw00915 0.0 103311
14 april, wed
wed1401:00+3ene11925 0.0 103317
04:00+3e11935 0.0 103320
07:00+2e11935 0.0 103423
10:00+8se10736 0.0 1034451
13:00+10w216181 0.1 10341192
16:00+9wnw116677 0.1 1034528
19:00+8nnw117142 0.1 1033215
22:00+5ene11855 0.0 103411
15 april, thu
thu1501:00+4ese22895 0.0 103427
04:00+3ese228382 0.0 103451
07:00+2ese238091 0.0 103566
10:00+7se255792 0.0 1034552
13:00+10sse455440 0.0 10331268
16:00+10s455172 0.0 10321500
19:00+8ssw34646 0.0 1031262
22:00+4sse22825 0.0 103274
16 april, fri
fri1601:00+3ese37785 0.0 1032195
04:00+2ese39815 0.0 1032286
07:00+1ese36855 0.0 1033190
10:00+6se57604 0.0 1033784
13:00+9se57525 0.0 10331327
16:00+10s464923 0.0 10321377
19:00+7sw336610 0.0 1033267
22:00+4se117776 0.0 103432